timestamp,surface_pressure_avg,surface_temp_avg,battery_voltage,lat,long
2023-12-20 00:09:00+00:00,216.6747,4.98,11.53,47.84626,-54.09684
2023-12-20 00:19:00+00:00,212.9931,4.9,11.53,47.84626,-54.09684
2023-12-20 00:29:00+00:00,209.5981,4.9,11.53,47.84626,-54.09684
2023-12-20 00:39:00+00:00,215.5314,4.9,11.53,47.84626,-54.09684
2023-12-20 00:49:00+00:00,216.1598,4.9,11.53,47.84626,-54.09684
2023-12-20 00:59:00+00:00,212.9714,4.9,11.53,47.84626,-54.09684
2023-12-20 01:09:00+00:00,223.0564,4.95,11.53,47.84626,-54.09684
2023-12-20 01:19:00+00:00,230.0398,4.98,11.53,47.84626,-54.09684
2023-12-20 01:29:00+00:00,225.9115,4.9,11.53,47.84626,-54.09684
2023-12-20 01:39:00+00:00,224.0747,4.9,11.53,47.84626,-54.09684
2023-12-20 01:49:00+00:00,230.0697,4.9,11.53,47.84626,-54.09684
2023-12-20 01:59:00+00:00,236.3181,4.9,11.53,47.84626,-54.09684
2023-12-20 02:09:00+00:00,234.7564,4.9,11.53,47.84626,-54.09684
2023-12-20 02:19:00+00:00,237.9048,4.9,11.53,47.84626,-54.09684
2023-12-20 02:29:00+00:00,251.2547,4.9,11.53,47.84626,-54.09684
2023-12-20 02:39:00+00:00,259.5014,4.9,11.53,47.84626,-54.09684
2023-12-20 02:49:00+00:00,257.8614,4.9,11.53,47.84626,-54.09684
2023-12-20 02:59:00+00:00,264.0298,4.9,11.53,47.84626,-54.09684
2023-12-20 03:09:00+00:00,276.473,4.9,11.53,47.84626,-54.09684
2023-12-20 03:19:00+00:00,280.9447,4.9,11.53,47.84626,-54.09684
2023-12-20 03:29:00+00:00,277.9014,4.9,11.53,47.84626,-54.09684
2023-12-20 03:39:00+00:00,284.293,4.9,11.53,47.84626,-54.09684
2023-12-20 03:49:00+00:00,291.0914,4.9,11.53,47.84626,-54.09684
2023-12-20 03:59:00+00:00,292.7864,4.9,11.53,47.84626,-54.09684
2023-12-20 04:09:00+00:00,292.9314,4.9,11.53,47.84626,-54.09684
2023-12-20 04:19:00+00:00,300.4463,4.94,11.53,47.84626,-54.09684
2023-12-20 04:29:00+00:00,306.3196,4.97,11.53,47.84626,-54.09684
2023-12-20 04:39:00+00:00,303.123,4.99,11.53,47.84626,-54.09684
2023-12-20 04:49:00+00:00,307.1364,4.98,11.53,47.84626,-54.09684
2023-12-20 04:59:00+00:00,314.7363,4.99,11.53,47.84626,-54.09684
2023-12-20 05:09:00+00:00,316.7079,4.99,11.53,47.84626,-54.09684
2023-12-20 05:19:00+00:00,313.8296,5.0,11.53,47.84626,-54.09684
2023-12-20 05:29:00+00:00,313.8347,5.0,11.53,47.84626,-54.09684
2023-12-20 05:39:00+00:00,319.6013,5.0,11.53,47.84626,-54.09684
2023-12-20 05:49:00+00:00,319.9913,5.0,11.53,47.84626,-54.09684
2023-12-20 05:59:00+00:00,322.8664,4.99,11.53,47.84626,-54.09684
2023-12-20 06:09:00+00:00,325.5196,4.99,11.53,47.84626,-54.09684
2023-12-20 06:19:00+00:00,321.408,4.99,11.53,47.84626,-54.09684
2023-12-20 06:29:00+00:00,320.3829,5.0,11.53,47.84626,-54.09684
2023-12-20 06:39:00+00:00,321.923,5.0,11.53,47.84626,-54.09684
2023-12-20 06:49:00+00:00,317.6963,5.0,11.53,47.84626,-54.09684
2023-12-20 06:59:00+00:00,306.95799999999997,5.0,11.53,47.84626,-54.09684
2023-12-20 07:09:00+00:00,304.0163,5.0,11.53,47.84626,-54.09684
2023-12-20 07:19:00+00:00,306.5397,5.0,11.53,47.84626,-54.09684
2023-12-20 07:29:00+00:00,302.1997,5.0,11.53,47.84626,-54.09684
2023-12-20 07:39:00+00:00,293.623,5.0,11.53,47.84626,-54.09684
2023-12-20 07:49:00+00:00,291.4813,5.0,11.53,47.84626,-54.09684
2023-12-20 07:59:00+00:00,286.8613,5.0,11.53,47.84626,-54.09684
2023-12-20 08:09:00+00:00,277.5381,5.0,11.53,47.84626,-54.09684
2023-12-20 08:19:00+00:00,271.7447,5.0,11.46,47.84626,-54.09684
2023-12-20 08:29:00+00:00,268.8914,5.0,11.46,47.84626,-54.09684
2023-12-20 08:39:00+00:00,256.2864,5.0,11.46,47.84626,-54.09684
2023-12-20 08:49:00+00:00,242.4564,5.02,11.46,47.84626,-54.09684
2023-12-20 08:59:00+00:00,238.9164,5.03,11.46,47.84626,-54.09684
2023-12-20 09:09:00+00:00,234.9981,5.06,11.46,47.84626,-54.09684
2023-12-20 09:19:01+00:00,224.4815,5.04,11.46,47.84626,-54.09684
2023-12-20 09:29:01+00:00,221.4615,5.06,11.46,47.84626,-54.09684
2023-12-20 09:39:01+00:00,219.4114,5.08,11.46,47.84626,-54.09684
2023-12-20 09:49:01+00:00,211.4798,5.08,11.46,47.84626,-54.09684
2023-12-20 09:59:01+00:00,207.6048,5.08,11.46,47.84626,-54.09684
2023-12-20 10:09:01+00:00,210.3631,5.09,11.46,47.84626,-54.09684
2023-12-20 10:19:00+00:00,202.9065,5.1,11.46,47.84626,-54.09684
2023-12-20 10:29:00+00:00,198.4998,5.1,11.46,47.84626,-54.09684
2023-12-20 10:39:00+00:00,202.1148,5.1,11.46,47.84626,-54.09684
2023-12-20 10:49:00+00:00,201.7031,5.1,11.46,47.84626,-54.09684
2023-12-20 10:59:00+00:00,197.3498,5.07,11.46,47.84626,-54.09684
2023-12-20 11:09:00+00:00,200.2347,5.08,11.46,47.84626,-54.09684
2023-12-20 11:19:00+00:00,204.2181,5.09,11.46,47.84626,-54.09684
2023-12-20 11:29:00+00:00,201.8031,5.07,11.46,47.84626,-54.09684
2023-12-20 11:39:00+00:00,201.953,5.07,11.46,47.84626,-54.09684
2023-12-20 11:49:00+00:00,206.2631,5.1,11.46,47.84626,-54.09684
2023-12-20 11:59:00+00:00,204.8881,5.1,11.46,47.84626,-54.09684
2023-12-20 12:09:00+00:00,199.4331,5.1,11.46,47.84626,-54.09684
2023-12-20 12:19:00+00:00,203.5648,5.13,11.46,47.84626,-54.09684
2023-12-20 12:29:00+00:00,207.6015,5.1,11.46,47.84626,-54.09684
2023-12-20 12:39:00+00:00,204.5648,5.09,11.46,47.84626,-54.09684
2023-12-20 12:49:00+00:00,205.1581,5.07,11.46,47.84626,-54.09684
2023-12-20 12:59:00+00:00,214.2681,5.04,11.46,47.84626,-54.09684
2023-12-20 13:09:00+00:00,217.0098,5.0,11.46,47.84626,-54.09684
2023-12-20 13:19:00+00:00,216.6998,5.0,11.46,47.84626,-54.09684
2023-12-20 13:29:00+00:00,220.2298,5.0,11.46,47.84626,-54.09684
2023-12-20 13:39:00+00:00,225.5581,5.0,11.46,47.84626,-54.09684
2023-12-20 13:49:00+00:00,226.3214,5.0,11.46,47.84626,-54.09684
2023-12-20 13:59:00+00:00,232.2498,5.0,11.46,47.84626,-54.09684
2023-12-20 14:09:00+00:00,239.5214,5.0,11.46,47.84626,-54.09684
2023-12-20 14:19:00+00:00,245.8714,5.0,11.46,47.84626,-54.09684
2023-12-20 14:29:00+00:00,253.5031,5.0,11.46,47.84626,-54.09684
2023-12-20 14:39:00+00:00,259.7431,5.0,11.46,47.84626,-54.09684
2023-12-20 14:49:00+00:00,263.6348,5.0,11.46,47.84626,-54.09684
2023-12-20 14:59:00+00:00,267.9648,5.0,11.46,47.84626,-54.09684
2023-12-20 15:09:00+00:00,274.9197,5.0,11.46,47.84626,-54.09684
2023-12-20 15:19:00+00:00,282.4581,5.0,11.46,47.84626,-54.09684
2023-12-20 15:29:00+00:00,287.9031,5.0,11.46,47.84626,-54.09684
2023-12-20 15:39:00+00:00,295.3663,5.0,11.46,47.84626,-54.09684
2023-12-20 15:49:00+00:00,300.503,5.0,11.46,47.84626,-54.09684
2023-12-20 15:59:00+00:00,304.02299999999997,5.0,11.46,47.84626,-54.09684
2023-12-20 16:09:00+00:00,306.4297,5.0,11.46,47.84626,-54.09684
2023-12-20 16:19:00+00:00,312.0263,5.0,11.46,47.84626,-54.09684
2023-12-20 16:29:00+00:00,317.6713,5.0,11.46,47.84626,-54.09684
2023-12-20 16:39:00+00:00,319.788,5.02,11.46,47.84626,-54.09684
2023-12-20 16:49:00+00:00,323.2164,5.06,11.46,47.84626,-54.09684
2023-12-20 16:59:00+00:00,325.8463,5.04,11.46,47.84626,-54.09684
2023-12-20 17:09:00+00:00,323.053,5.0,11.46,47.84626,-54.09684
2023-12-20 17:19:00+00:00,325.8729,5.0,11.46,47.84626,-54.09684
2023-12-20 17:29:00+00:00,335.0713,5.0,11.46,47.84626,-54.09684
2023-12-20 17:39:00+00:00,338.7813,5.0,11.46,47.84626,-54.09684
2023-12-20 17:49:00+00:00,334.9564,5.0,11.46,47.84626,-54.09684
2023-12-20 17:59:00+00:00,338.3547,5.0,11.46,47.84626,-54.09684
2023-12-20 18:09:00+00:00,346.168,5.0,11.46,47.84626,-54.09684
2023-12-20 18:19:00+00:00,344.4246,4.99,11.46,47.84626,-54.09684
2023-12-20 18:29:00+00:00,340.7996,4.98,11.46,47.84626,-54.09684
2023-12-20 18:39:00+00:00,343.82300000000015,4.98,11.46,47.84626,-54.09684
2023-12-20 18:49:00+00:00,342.9846,4.98,11.46,47.84626,-54.09684
2023-12-20 18:59:00+00:00,334.168,4.98,11.46,47.84626,-54.09684
2023-12-20 19:09:00+00:00,327.7630000000001,4.98,11.46,47.84626,-54.09684
2023-12-20 19:19:00+00:00,331.98800000000006,4.98,11.46,47.84626,-54.09684
2023-12-20 19:29:00+00:00,328.4996,4.97,11.46,47.84626,-54.09684
2023-12-20 19:39:00+00:00,319.118,4.96,11.46,47.84626,-54.09684
2023-12-20 19:49:00+00:00,319.033,4.96,11.46,47.84626,-54.09684
2023-12-20 19:59:00+00:00,315.5696,4.96,11.46,47.84626,-54.09684
2023-12-20 20:09:00+00:00,306.3063,4.95,11.46,47.84626,-54.09684
2023-12-20 20:19:01+00:00,295.1647,4.94,11.46,47.84626,-54.09684
2023-12-20 20:29:01+00:00,293.2531,4.95,11.46,47.84626,-54.09684
2023-12-20 20:39:01+00:00,285.553,4.92,11.46,47.84626,-54.09684
2023-12-20 20:49:01+00:00,276.8414,4.9,11.46,47.84626,-54.09684
2023-12-20 20:59:01+00:00,270.4648,4.9,11.46,47.84626,-54.09684
2023-12-20 21:09:01+00:00,268.3531,4.91,11.46,47.84626,-54.09684
2023-12-20 21:19:01+00:00,262.0147,4.96,11.46,47.84626,-54.09684
2023-12-20 21:29:01+00:00,255.9031,4.98,11.46,47.84626,-54.09684
2023-12-20 21:39:01+00:00,250.8114,5.0,11.46,47.84626,-54.09684
2023-12-20 21:49:01+00:00,246.1398,5.0,11.46,47.84626,-54.09684
2023-12-20 21:59:01+00:00,238.6931,5.0,11.46,47.84626,-54.09684
2023-12-20 22:09:01+00:00,232.1231,5.0,11.46,47.84626,-54.09684
2023-12-20 22:19:00+00:00,230.1897,5.05,11.46,47.84626,-54.09684
2023-12-20 22:29:00+00:00,228.8748,5.1,11.46,47.84626,-54.09684
2023-12-20 22:39:00+00:00,225.8098,5.1,11.46,47.84626,-54.09684
2023-12-20 22:49:00+00:00,224.3731,5.1,11.46,47.84626,-54.09684
2023-12-20 22:59:00+00:00,222.9531,5.11,11.46,47.84626,-54.09684
2023-12-20 23:09:00+00:00,217.7865,5.16,11.46,47.84626,-54.09684
2023-12-20 23:19:00+00:00,217.4247,5.19,11.46,47.84626,-54.09684
2023-12-20 23:29:00+00:00,220.3064,5.19,11.46,47.84626,-54.09684
2023-12-20 23:39:00+00:00,220.3165,5.2,11.46,47.84626,-54.09684
2023-12-20 23:49:00+00:00,219.5764,5.2,11.46,47.84626,-54.09684
2023-12-20 23:59:00+00:00,218.6898,5.2,11.46,47.84626,-54.09684
